Hourly Data Report for April 29, 2018

TORONTO CITY
ONTARIO
Current Station Operator: ECCC - MSC

43°40'00.000" N
79°24'00.000" W
112.50 m
6158355
71508
XTO

Download Data

Hourly Data (April 2018)
Hourly Data Report for April 29, 2018
TIME
LST
Temp Definition
°C
Dew Point Definition
°C
Rel Hum Definition
%
Precip. Amount Definition
mm

Wind Dir Definition
10's deg

Wind Spd Definition
km/h
Visibility Definition
km
Stn Press Definition
kPa
Hmdx Definition


Wind Chill Definition


Weather Definition


00:00 1.9 -3.1 69 0.0 LegendMM LegendMM   100.41     LegendNANA
01:00 1.9 -2.8 71 0.0 LegendMM LegendMM   100.42     LegendNANA
02:00 1.7 -2.5 74 0.0 LegendMM LegendMM   100.43     LegendNANA
03:00 1.8 -2.1 75 0.0 LegendMM LegendMM   100.47     LegendNANA
04:00 1.8 -2.3 75 0.0 LegendMM LegendMM   100.48     LegendNANA
05:00 0.9 -1.5 84 0.2 LegendMM LegendMM   100.54     LegendNANA
06:00 1.4 -2.3 76 0.0 LegendMM LegendMM   100.60     LegendNANA
07:00 2.4 -2.6 70 0.0 LegendMM LegendMM   100.64     LegendNANA
08:00 3.3 -3.7 60 0.0 LegendMM LegendMM   100.69     LegendNANA
09:00 5.6 -3.3 53 0.0 LegendMM LegendMM   100.71     LegendNANA
10:00 6.4 -5.9 41 0.0 LegendMM LegendMM   100.74     LegendNANA
11:00 7.3 -7.2 35 0.0 LegendMM LegendMM   100.74     LegendNANA
12:00 8.8 -7.1 32 0.0 LegendMM LegendMM   100.68     LegendNANA
13:00 9.5 -8.7 27 0.0 LegendMM LegendMM   100.64     LegendNANA
14:00 10.2 -9.7 24 0.0 LegendMM LegendMM   100.61     LegendNANA
15:00 10.2 -14.6 16 0.0 LegendMM LegendMM   100.58     LegendNANA
16:00 10.1 -17.1 13 0.0 LegendMM LegendMM   100.58     LegendNANA
17:00 9.2 -16.6 14 0.0 LegendMM LegendMM   100.61     LegendNANA
18:00 8.8 -14.0 18 0.0 LegendMM LegendMM   100.60     LegendNANA
19:00 7.9 -11.9 23 0.0 LegendMM LegendMM   100.64     LegendNANA
20:00 7.0 -11.3 26 0.0 LegendMM LegendMM   100.69     LegendNANA
21:00 6.7 -11.0 27 0.0 LegendMM LegendMM   100.72     LegendNANA
22:00 5.7 -9.7 32 0.0 LegendMM LegendMM   100.71     LegendNANA
23:00 5.1 -8.2 38 0.0 LegendMM LegendMM   100.72     LegendNANA

Notes on Data Quality.

Legend

  • E = Estimated
  • M = Missing
  • NA = Not Available*
  • [empty] = Indicates an unobserved value
Date modified: